{"data":{"norad_id":52873,"intl_designator":"2022-062AV","name":"STARLINK-4211","alt_names":[],"object_type":"PAYLOAD","status":"ACTIVE","operator":null,"country":"US","launch_date":"2022-06-17","launch_site_code":"AFETR","launch_vehicle":null,"mission":null,"orbit_class":"UNKNOWN","rcs_meters":null,"size_class":null,"mass_kg":null,"dimensions":null,"purposes":["comms"],"wikipedia_slug":null,"has_3d_model":false,"image_url":null,"decayed_at":null,"tle_current":{"epoch":"2026-09-19T07:44:28.153248Z","epoch_age_seconds":170557,"freshness":"FRESH","line1":"1 52873U 22062AV  26262.32254807  .00001286  00000+0  49203-4 0  9994","line2":"2 52873  53.1599 208.9202 0001317  89.6399 270.4754 15.34384529235517","mean_motion":15.34384529,"eccentricity":0.0001317,"inclination_deg":53.1599,"raan_deg":208.9202,"arg_perigee_deg":89.6399,"mean_anomaly_deg":270.4754,"bstar":4.9203e-5,"rev_number":23551,"period_min":93.848704336095,"perigee_km":461.84827895018,"apogee_km":463.65016838149,"semimajor_km":6840.8862236658,"source":"CELESTRAK","updated_at":"2026-09-20T09:00:40.136818Z"}}}